FW4685 Weather Reports


Display with metric or nautical units.
time (UTC)temp
F
wind
direction
speed
MPH
gust
MPH
rain 1hr
in
rain 24hr
in
rain mn
in
humidity
%
barometer
mb
20260906182525 72 73 0.0 0.0 0.00 0.00 0.00 61 1019.4
20260906181520 72 150 1.0 5.0 0.00 0.00 0.00 61 1019.3
20260906180529 73 144 1.0 7.0 0.00 0.00 0.00 60 1019.5
20260906175524 73 158 0.0 2.0 0.00 0.00 0.00 58 1019.5
20260906174519 73 149 1.0 5.0 0.00 0.00 0.00 56 1019.6
20260906173529 73 130 1.0 5.0 0.00 0.00 0.00 55 1019.8
20260906172525 73 144 0.0 2.0 0.00 0.00 0.00 56 1019.9
20260906171530 73 152 1.0 5.0 0.00 0.00 0.00 57 1020.0
20260906170524 73 149 2.0 10.0 0.00 0.00 0.00 56 1020.1
20260906165537 74 142 1.0 5.0 0.00 0.00 0.00 57 1020.3
20260906164525 74 147 2.0 7.0 0.00 0.00 0.00 56 1020.3
20260906163519 75 160 3.0 10.0 0.00 0.00 0.00 54 1020.6
20260906162528 76 169 1.0 7.0 0.00 0.00 0.00 54 1020.6
20260906161525 76 182 1.0 7.0 0.00 0.00 0.00 53 1020.5
20260906160517 77 133 2.0 10.0 0.00 0.00 0.00 51 1020.4
20260906155530 77 170 1.0 12.0 0.00 0.00 0.00 50 1020.5
20260906154518 78 150 1.0 5.0 0.00 0.00 0.00 48 1020.6
20260906153529 78 159 2.0 7.0 0.00 0.00 0.00 47 1020.6
20260906152525 78 130 1.0 5.0 0.00 0.00 0.00 46 1020.5
20260906151538 79 168 2.0 10.0 0.00 0.00 0.00 44 1020.6
20260906150529 79 127 2.0 10.0 0.00 0.00 0.00 43 1020.7
20260906145524 79 140 1.0 5.0 0.00 0.00 0.00 43 1020.7
20260906144517 80 146 1.0 7.0 0.00 0.00 0.00 42 1020.7
20260906143529 81 180 1.0 7.0 0.00 0.00 0.00 43 1020.8
20260906142518 83 141 2.0 12.0 0.00 0.00 0.00 42 1020.9
20260906141529 84 136 1.0 7.0 0.00 0.00 0.00 39 1020.9
20260906140526 84 263 1.0 7.0 0.00 0.00 0.00 37 1021.0
20260906135538 84 157 1.0 5.0 0.00 0.00 0.00 36 1021.2
20260906134529 84 150 2.0 10.0 0.00 0.00 0.00 38 1021.4
20260906133525 83 155 1.0 5.0 0.00 0.00 0.00 36 1021.4
20260906132518 82 161 3.0 10.0 0.00 0.00 0.00 38 1021.6
20260906131530 82 169 1.0 5.0 0.00 0.00 0.00 40 1021.8
20260906130524 81 149 1.0 10.0 0.00 0.00 0.00 40 1022.0
20260906125519 80 157 1.0 10.0 0.00 0.00 0.00 41 1022.0
20260906124528 80 190 2.0 10.0 0.00 0.00 0.00 41 1022.1
20260906123524 79 149 2.0 7.0 0.00 0.00 0.00 41 1022.2
20260906122517 79 169 2.0 7.0 0.00 0.00 0.00 43 1022.2
20260906121525 79 189 1.0 7.0 0.00 0.00 0.00 42 1022.2
20260906120517 79 142 2.0 15.0 0.00 0.00 0.00 44 1022.4
20260906115528 78 160 1.0 10.0 0.00 0.00 0.00 44 1022.5
20260906114524 78 169 2.0 10.0 0.00 0.00 0.00 43 1022.6
20260906113518 78 145 1.0 5.0 0.00 0.00 0.00 47 1022.8
20260906112530 79 174 3.0 17.0 0.00 0.00 0.00 47 1022.8
20260906111525 79 155 2.0 7.0 0.00 0.00 0.00 46 1022.9
20260906110518 78 153 2.0 7.0 0.00 0.00 0.00 47 1022.9
20260906105529 78 190 2.0 17.0 0.00 0.00 0.00 49 1023.0
20260906104524 77 148 2.0 10.0 0.00 0.00 0.00 50 1023.2
20260906103524 77 153 2.0 10.0 0.00 0.00 0.00 50 1023.3
20260906102518 77 142 3.0 10.0 0.00 0.00 0.00 51 1023.4
20260906101530 76 144 2.0 15.0 0.00 0.00 0.00 53 1023.4
20260906100524 76 171 2.0 7.0 0.00 0.00 0.00 53 1023.4
20260906095516 75 145 2.0 10.0 0.00 0.00 0.00 54 1023.4
20260906094529 74 150 1.0 5.0 0.00 0.00 0.00 57 1023.6
20260906093537 73 124 2.0 10.0 0.00 0.00 0.00 59 1023.7
20260906092530 71 170 1.0 10.0 0.00 0.00 0.00 61 1023.9
20260906091524 70 146 1.0 5.0 0.00 0.00 0.00 63 1023.8
20260906090517 69 150 1.0 7.0 0.00 0.00 0.00 66 1023.9
20260906085524 68 141 3.0 10.0 0.00 0.00 0.00 68 1024.1
20260906084518 67 168 2.0 10.0 0.00 0.00 0.00 71 1023.8
20260906083550 67 146 1.0 7.0 0.00 0.00 0.00 72 1023.9
20260906082516 66 143 2.0 7.0 0.00 0.00 0.00 74 1024.0
20260906081525 64 137 1.0 5.0 0.00 0.00 0.00 74 1024.1
20260906080517 63 178 0.0 2.0 0.00 0.00 0.00 75 1024.2
20260906075529 63 166 1.0 7.0 0.00 0.00 0.00 77 1024.4
20260906074524 62 180 0.0 5.0 0.00 0.00 0.00 79 1024.5
20260906073527 62 166 0.0 2.0 0.00 0.00 0.00 79 1024.4
20260906072605 62 147 0.0 2.0 0.00 0.00 0.00 79 1024.6
20260906071518 61 158 0.0 5.0 0.00 0.00 0.00 79 1024.6
20260906070530 60 129 0.0 0.0 0.00 0.00 0.00 79 1024.6
20260906065524 58 137 0.0 0.0 0.00 0.00 0.00 81 1024.7
20260906064537 57 127 0.0 0.0 0.00 0.00 0.00 83 1024.7
20260906063528 56 123 0.0 0.0 0.00 0.00 0.00 88 1024.9
20260906062523 56 127 0.0 0.0 0.00 0.00 0.00 88 1025.0
20260906061517 56 128 0.0 0.0 0.00 0.00 0.00 88 1025.0
20260906060550 56 125 0.0 0.0 0.00 0.00 0.00 88 1025.1
20260906055543 56 126 0.0 0.0 0.00 0.00 0.00 88 1025.1
20260906054519 56 125 0.0 0.0 0.00 0.00 0.00 87 1025.0
20260906053529 56 125 0.0 0.0 0.00 0.00 0.00 87 1025.1
20260906052525 56 127 0.0 0.0 0.00 0.00 0.00 87 1025.1
20260906051533 56 126 0.0 0.0 0.00 0.00 0.00 87 1025.3
20260906050524 56 129 0.0 0.0 0.00 0.00 0.00 87 1025.3
20260906045519 56 127 0.0 0.0 0.00 0.00 0.00 87 1025.3
20260906044528 56 136 0.0 0.0 0.00 0.00 0.00 86 1025.4
20260906043519 56 76 0.0 0.0 0.00 0.00 0.00 87 1025.3
20260906042529 56 55 0.0 0.0 0.00 0.00 0.00 87 1025.3
20260906041523 56 55 0.0 0.0 0.00 0.00 0.00 87 1025.3
20260906040515 55 53 0.0 0.0 0.00 0.00 0.00 87 1025.4
20260906035527 55 45 0.0 0.0 0.00 0.00 0.00 88 1025.5
20260906034525 55 70 0.0 0.0 0.00 0.00 0.00 88 1025.5
20260906033516 55 23 0.0 0.0 0.00 0.00 0.00 88 1025.6
20260906032529 55 32 0.0 0.0 0.00 0.00 0.00 88 1025.7
20260906031524 55 22 0.0 0.0 0.00 0.00 0.00 88 1025.7
20260906030518 55 55 0.0 0.0 0.00 0.00 0.00 89 1025.6
20260906025529 55 74 0.0 0.0 0.00 0.00 0.00 89 1025.8
20260906024520 55 109 0.0 0.0 0.00 0.00 0.00 89 1025.7
20260906023524 55 67 0.0 0.0 0.00 0.00 0.00 89 1025.9
20260906022528 55 76 0.0 0.0 0.00 0.00 0.00 89 1026.3
20260906021525 55 62 0.0 0.0 0.00 0.00 0.00 88 1026.4
20260906020515 55 107 0.0 0.0 0.00 0.00 0.00 88 1026.4
20260906015547 55 107 0.0 0.0 0.00 0.00 0.00 88 1026.6
20260906014515 55 68 0.0 0.0 0.00 0.00 0.00 87 1026.6
20260906013529 55 55 0.0 0.0 0.00 0.00 0.00 87 1026.7
20260906012545 56 62 0.0 0.0 0.00 0.00 0.00 87 1026.6
20260906011516 56 74 0.0 0.0 0.00 0.00 0.00 86 1026.9
20260906010525 56 114 0.0 0.0 0.00 0.00 0.00 86 1026.8
20260906005530 56 128 0.0 0.0 0.00 0.00 0.00 86 1026.8
20260906004528 56 140 0.0 0.0 0.00 0.00 0.00 85 1026.8
20260906003523 56 117 0.0 0.0 0.00 0.00 0.00 86 1026.9
20260906002535 56 71 0.0 0.0 0.00 0.00 0.00 85 1027.1
20260906001528 56 77 0.0 0.0 0.00 0.00 0.00 85 1027.1
20260906000522 56 79 0.0 0.0 0.00 0.00 0.00 85 1027.3
20260905235519 56 83 0.0 0.0 0.00 0.00 0.00 85 1027.2
20260905234518 56 77 0.0 0.0 0.00 0.00 0.00 84 1027.2
20260905233527 56 127 0.0 0.0 0.00 0.00 0.00 84 1027.3
20260905232522 56 73 0.0 0.0 0.00 0.00 0.00 84 1027.1
20260905231538 56 78 0.0 0.0 0.00 0.00 0.00 83 1027.1
20260905230526 56 63 0.0 0.0 0.00 0.00 0.00 83 1027.0
20260905225524 57 64 0.0 0.0 0.00 0.00 0.00 83 1027.0
20260905224559 57 70 0.0 0.0 0.00 0.00 0.00 83 1027.1
20260905223517 57 62 0.0 0.0 0.00 0.00 0.00 81 1027.1
20260905222530 58 74 0.0 0.0 0.00 0.00 0.00 80 1027.1
20260905221522 58 70 0.0 0.0 0.00 0.00 0.00 79 1027.1
20260905220516 59 87 0.0 0.0 0.00 0.00 0.00 79 1027.0
20260905215525 59 70 0.0 0.0 0.00 0.00 0.00 78 1026.9
20260905214515 59 93 0.0 0.0 0.00 0.00 0.00 78 1027.0
20260905213526 59 152 0.0 0.0 0.00 0.00 0.00 77 1027.1
20260905212522 59 54 0.0 0.0 0.00 0.00 0.00 76 1026.8
20260905211518 59 119 0.0 0.0 0.00 0.00 0.00 76 1026.8
20260905210528 60 62 0.0 0.0 0.00 0.00 0.00 75 1026.8
20260905205523 60 100 0.0 0.0 0.00 0.00 0.00 74 1026.8
20260905204515 60 94 0.0 0.0 0.00 0.00 0.00 73 1026.7
20260905203527 61 95 0.0 0.0 0.00 0.00 0.00 72 1026.7
20260905202515 62 129 0.0 0.0 0.00 0.00 0.00 70 1026.8
20260905201527 63 118 0.0 0.0 0.00 0.00 0.00 68 1026.7
20260905200524 63 219 0.0 0.0 0.00 0.00 0.00 66 1026.7
20260905195531 63 155 1.0 5.0 0.00 0.00 0.00 64 1026.7
20260905194530 63 146 0.0 2.0 0.00 0.00 0.00 62 1026.5
20260905193544 64 74 0.0 0.0 0.00 0.00 0.00 60 1026.4
20260905192522 64 183 0.0 0.0 0.00 0.00 0.00 59 1026.4
20260905191528 65 295 0.0 2.0 0.00 0.00 0.00 58 1026.3
20260905190516 66 63 0.0 0.0 0.00 0.00 0.00 57 1026.2
20260905185527 67 22 0.0 2.0 0.00 0.00 0.00 55 1026.1
20260905184530 68 93 0.0 0.0 0.00 0.00 0.00 54 1026.1
20260905183523 69 63 0.0 0.0 0.00 0.00 0.00 52 1025.8